カタログに戻る

SL-3 R/B

運用中PO
NORAD 7210·ROCKET BODY·🇷🇺 Russia

打ち上げ Mar 5, 1974 から Plesetsk Cosmodrome

Loading…

次のパス (今後24時間)

TLE

最新Source: Space-Track

元期: Sep 14, 2026, 11:42 UTC

1 07210U 74011B   26257.48793374  .00000153  00000-0  71711-4 0  9990
2 07210  81.2395 340.6537 0081351 133.3748 227.4240 14.13654316706609

AllMySatでSL-3 R/Bをリアルタイム追跡

Download on the App Store